Spokane Fairchild, WA
on Tuesday, January 1, 2013

Tuesday
Previous Day Next Day
Daily Summary
 ActualAverage (KGEG)Record (KGEG)
Temperature
Mean Temperature °F 27°F  
Max Temperature 23°F 32°F 62°F (1918)
Min Temperature 10°F 22°F -22°F (1979)
Degree Days
Heating Degree Days 48 38  
Month to date heating degree days 38  
Since 1 July heating degree days 2872  
Cooling Degree Days 0 0  
Month to date cooling degree days 0  
Year to date cooling degree days 0  
Moisture
Dew Point 20°F   
Average Humidity 100    
Maximum Humidity 100    
Minimum Humidity 100    
Precipitation
Precipitation 0.00 in 0.06 in 0.84 in (1994)
Month to date precipitation 0.06  
Year to date precipitation 0.06  
Snow
Snow 0.00 in 0.50 in 8.00 in (1899)
Month to date snowfall 0.5  
Since 1 July snowfall 22.6  
Snow Depth in   
Wind
Wind Speed 4 mph   
Max Wind Speed 10 mph   
Max Gust Speed mph   
Visibility 10 miles   
Events Snow   

Key: T is trace of precipitation, MM is missing value
Source: NWS Daily Summary
Time(PST)TemperatureDew PointHumidity Pressure Visibility Wind DirectionWind SpeedGust SpeedPrecipitationEvents Conditions
12:50 AM 10.4°F 10.4°F 100% 30.38 in 10.0 miles South 3.5 mph - N/A Snow Light Snow
12:58 AM 11.5°F 11.5°F 100% 30.51 in 10.0 miles South 4.6 mph - 0.00 in Snow Light Snow
1:00 AM 12.2°F 12.2°F 100% 30.37 in 10.0 miles SSE 4.6 mph - N/A   Mostly Cloudy
1:10 AM 12.2°F 12.2°F 100% 30.37 in 10.0 miles SSE 5.8 mph - N/A   Scattered Clouds
1:30 AM 15.8°F 15.8°F 100% 30.37 in 10.0 miles South 2.3 mph - N/A   Mostly Cloudy
1:58 AM 16.7°F 16.7°F 100% 30.52 in 10.0 miles SW 2.3 mph - 0.00 in   Overcast
2:30 AM 15.8°F 15.8°F 100% 30.41 in 10.0 miles SSW 4.6 mph - N/A Snow Light Snow
2:47 AM 12.2°F 12.2°F 100% 30.42 in 10.0 miles WSW 3.5 mph - N/A   Overcast
2:53 AM 12.2°F 12.2°F 100% 30.43 in 10.0 miles West 3.5 mph - N/A   Overcast
2:58 AM 12.6°F 12.6°F 100% 30.55 in 10.0 miles West 4.6 mph - 0.00 in   Overcast
3:18 AM 14.0°F 14.0°F 100% 30.42 in 10.0 miles South 4.6 mph - N/A Snow Light Snow
3:28 AM 14.0°F 14.0°F 100% 30.42 in 10.0 miles SSW 2.3 mph - N/A   Overcast
3:58 AM 15.4°F 15.4°F 100% 30.56 in 10.0 miles WSW 6.9 mph - 0.00 in   Overcast
4:58 AM 20.5°F 20.5°F 100% 30.56 in 10.0 miles WSW 8.1 mph - N/A   Overcast
5:58 AM 19.9°F 19.9°F 100% 30.58 in 10.0 miles WSW 4.6 mph - N/A   Overcast
6:13 AM 21.2°F 21.2°F 100% 30.45 in 10.0 miles WSW 5.8 mph - N/A   Overcast
6:43 AM 21.2°F 21.2°F 100% 30.44 in 10.0 miles West 4.6 mph - N/A   Overcast
6:58 AM 20.5°F 20.5°F 100% 30.58 in 10.0 miles West 5.8 mph - N/A   Overcast
7:33 AM 21.2°F 21.2°F 100% 30.45 in 10.0 miles WSW 3.5 mph - N/A Snow Light Snow
7:46 AM 21.2°F 21.2°F 100% 30.46 in 10.0 miles SSW 5.8 mph - N/A   Overcast
7:56 AM 21.2°F 21.2°F 100% 30.47 in 10.0 miles WSW 9.2 mph - N/A   Overcast
7:58 AM 20.8°F 20.8°F 100% 30.61 in 10.0 miles WSW 10.4 mph - 0.00 in   Overcast
7:59 AM 21.2°F 21.2°F 100% 30.47 in 10.0 miles WSW 10.4 mph - N/A Snow Light Snow
8:36 AM 21.2°F 21.2°F 100% 30.48 in 10.0 miles WSW 6.9 mph - N/A   Overcast
8:44 AM 21.2°F 21.2°F 100% 30.48 in 10.0 miles WSW 3.5 mph - N/A Snow Light Snow
8:57 AM 21.2°F 21.2°F 100% 30.49 in 10.0 miles WSW 4.6 mph - N/A   Overcast
8:58 AM 21.2°F 21.2°F 100% 30.62 in 10.0 miles WSW 4.6 mph - 0.00 in   Overcast
9:05 AM 21.2°F 21.2°F 100% 30.49 in 10.0 miles SW 5.8 mph - N/A Snow Light Snow
9:27 AM 21.2°F 21.2°F 100% 30.50 in 10.0 miles SW 4.6 mph - N/A   Overcast
9:29 AM 21.2°F 21.2°F 100% 30.50 in 10.0 miles SW 4.6 mph - N/A Snow Light Snow
9:30 AM 21.2°F 21.2°F 100% 30.50 in 10.0 miles SW 5.8 mph - N/A   Overcast
9:42 AM 21.2°F 21.2°F 100% 30.51 in 10.0 miles WSW 6.9 mph - N/A Snow Light Snow
9:43 AM 21.2°F 21.2°F 100% 30.51 in 10.0 miles WSW 8.1 mph - N/A Snow Light Snow
9:58 AM 21.4°F 21.4°F 100% 30.65 in 10.0 miles WSW 6.9 mph - 0.00 in Snow Light Snow
9:59 AM 21.2°F 21.2°F 100% 30.51 in 10.0 miles WSW 6.9 mph - N/A   Overcast
10:06 AM 21.2°F 21.2°F 100% 30.51 in 10.0 miles SSW 8.1 mph - N/A Snow Light Snow
10:16 AM 21.2°F 21.2°F 100% 30.51 in 10.0 miles SSW 5.8 mph - N/A Snow Light Snow
10:43 AM 21.2°F 21.2°F 100% 30.51 in 10.0 miles WSW 9.2 mph - N/A   Overcast
10:58 AM 21.6°F 21.6°F 100% 30.64 in 10.0 miles West 6.9 mph - 0.00 in   Overcast
11:58 AM 21.7°F 21.7°F 100% 30.64 in 10.0 miles West 6.9 mph - N/A   Overcast
12:04 PM 21.2°F 21.2°F 100% 30.50 in 10.0 miles West 6.9 mph - N/A   Overcast
12:13 PM 21.2°F 21.2°F 100% 30.50 in 10.0 miles West 6.9 mph - N/A   Overcast
12:23 PM 21.2°F 21.2°F 100% 30.51 in 10.0 miles West 5.8 mph - N/A   Overcast
12:58 PM 21.9°F 21.9°F 100% 30.64 in 10.0 miles NW 3.5 mph - 0.00 in   Overcast
1:13 PM 23.0°F 23.0°F 100% 30.51 in 10.0 miles North - - N/A   Overcast
1:22 PM 21.2°F 21.2°F 100% 30.51 in 10.0 miles Calm Calm - N/A   Overcast
1:32 PM 21.2°F 21.2°F 100% 30.51 in 10.0 miles Calm Calm - N/A   Overcast
1:58 PM 21.9°F 21.9°F 100% 30.63 in 10.0 miles Calm Calm - 0.00 in   Overcast
2:04 PM 21.2°F 21.2°F 100% 30.51 in 10.0 miles Calm Calm - N/A   Overcast
2:33 PM 21.2°F 21.2°F 100% 30.50 in 10.0 miles SE 3.5 mph - N/A   Overcast
2:44 PM 21.2°F 21.2°F 100% 30.51 in 10.0 miles ESE 3.5 mph - N/A   Overcast
2:58 PM 21.7°F 21.7°F 100% 30.64 in 10.0 miles ESE 3.5 mph - 0.00 in   Overcast
3:09 PM 21.2°F 21.2°F 100% 30.50 in 10.0 miles SE 3.5 mph - N/A   Overcast
3:29 PM 21.2°F 21.2°F 100% 30.51 in 10.0 miles Calm Calm - N/A   Overcast
3:34 PM 21.2°F 21.2°F 100% 30.51 in 10.0 miles Calm Calm - N/A   Overcast
3:58 PM 21.7°F 21.7°F 100% 30.65 in 10.0 miles SSW 2.3 mph - 0.00 in   Overcast
4:58 PM 21.7°F 21.7°F 100% 30.64 in 10.0 miles SW 2.3 mph - N/A   Overcast
5:32 PM 21.2°F 21.2°F 100% 30.51 in 10.0 miles North 1.2 mph - N/A   Overcast
5:42 PM 21.2°F 21.2°F 100% 30.51 in 10.0 miles West 1.2 mph - N/A   Overcast
5:46 PM 21.2°F 21.2°F 100% 30.51 in 10.0 miles Calm Calm - N/A   Overcast
5:58 PM 21.6°F 21.6°F 100% 30.64 in 10.0 miles Calm Calm - 0.00 in   Overcast
6:53 PM 21.2°F 21.2°F 100% 30.51 in 10.0 miles East 4.6 mph - N/A   Overcast
6:58 PM 21.6°F 21.6°F 100% 30.64 in 10.0 miles East 3.5 mph - 0.00 in   Overcast
7:08 PM 21.2°F 21.2°F 100% 30.52 in 10.0 miles ENE 2.3 mph - N/A   Overcast
7:17 PM 21.2°F 21.2°F 100% 30.52 in 10.0 miles East 2.3 mph - N/A   Overcast
7:28 PM 21.2°F 21.2°F 100% 30.52 in 10.0 miles NE 2.3 mph - N/A   Overcast
7:45 PM 21.2°F 21.2°F 100% 30.52 in 10.0 miles NNE 2.3 mph - N/A   Overcast
7:54 PM 21.2°F 21.2°F 100% 30.52 in 10.0 miles East 2.3 mph - N/A   Overcast
7:58 PM 21.4°F 21.4°F 100% 30.64 in 10.0 miles ENE 2.3 mph - 0.00 in   Overcast
8:03 PM 21.2°F 21.2°F 100% 30.52 in 10.0 miles Variable 2.3 mph - N/A   Overcast
8:41 PM 21.2°F 21.2°F 100% 30.52 in 10.0 miles Calm Calm - N/A   Overcast
8:47 PM 21.2°F 21.2°F 100% 30.52 in 10.0 miles Calm Calm - N/A   Overcast
8:56 PM 21.2°F 21.2°F 100% 30.53 in 10.0 miles North 2.3 mph - N/A   Overcast
8:58 PM 21.2°F 21.2°F 100% 30.65 in 10.0 miles North 2.3 mph - 0.00 in   Overcast
9:13 PM 21.2°F 21.2°F 100% 30.53 in 10.0 miles NNE 3.5 mph - N/A   Overcast
9:17 PM 21.2°F 21.2°F 100% 30.53 in 10.0 miles North 2.3 mph - N/A   Overcast
9:44 PM 21.2°F 21.2°F 100% 30.52 in 10.0 miles East 5.8 mph - N/A   Overcast
9:54 PM 21.2°F 21.2°F 100% 30.52 in 10.0 miles ENE 4.6 mph - N/A   Overcast
9:58 PM 21.6°F 21.6°F 100% 30.64 in 10.0 miles NE 3.5 mph - 0.00 in   Overcast
9:59 PM 21.2°F 21.2°F 100% 30.52 in 10.0 miles NE 3.5 mph - N/A   Overcast
10:21 PM 21.2°F 21.2°F 100% 30.52 in 10.0 miles SE 2.3 mph - N/A Snow Light Snow
10:31 PM 21.2°F 21.2°F 100% 30.52 in 10.0 miles ESE 3.5 mph - N/A   Overcast
10:42 PM 21.2°F 21.2°F 100% 30.52 in 10.0 miles ESE 3.5 mph - N/A Snow Light Snow
10:58 PM 21.6°F 21.6°F 100% 30.65 in 10.0 miles SW 1.2 mph - 0.00 in Snow Light Snow
11:13 PM 21.2°F 21.2°F 100% 30.53 in 10.0 miles WSW 2.3 mph - N/A Snow Light Snow
11:17 PM 21.2°F 21.2°F 100% 30.53 in 10.0 miles West 2.3 mph - N/A   Overcast
11:58 PM 21.4°F 21.4°F 100% 30.65 in 10.0 miles North 3.5 mph - 0.00 in   Overcast
Moon Phase
Jan. 01 Jan. 04 Jan. 11 Jan. 18 Jan. 26
Sunrise:07:38 AM (PST) Moon Rise:09:07 PM (PST)1/1
Sunset:04:10 PM (PST) Moon Set:09:34 AM (PST)1/1

Copyright © 2014 The Weather Underground, Inc.